This is the latest recevied weather packets stored in our database for station/object KE0PRS. If no packets are shown the sender has not sent any weather packets the latest 10 day(s).
| Time | Temp. | Humidity | Pressure | Rain* | Wind** | Luminosity | Snow |
|---|---|---|---|---|---|---|---|
| 1787919420 | 18.89° C | 94% | 1020.7 hPa | 0 mm | - | 7 W/m² | - |
| 1787919116 | 18.89° C | 94% | 1020.9 hPa | 0 mm | - | 3 W/m² | - |
| 1787918816 | 18.89° C | 94% | 1020.7 hPa | 0 mm | - | 2 W/m² | - |
| 1787918511 | 18.89° C | 94% | 1020.7 hPa | 0 mm | - | 1 W/m² | - |
| 1787918209 | 18.89° C | 93% | 1020.7 hPa | 0 mm | - | 1 W/m² | - |
| 1787917909 | 18.89° C | 93% | 1020.8 hPa | 0 mm | - | 0 W/m² | - |
| 1787917605 | 18.89° C | 93% | 1020.6 hPa | 0 mm | - | 0 W/m² | - |
| 1787917301 | 18.89° C | 93% | 1020.1 hPa | 0 mm | - | 0 W/m² | - |
| 1787917000 | 18.89° C | 93% | 1020.2 hPa | 0 mm | - | 0 W/m² | - |
| 1787916696 | 18.89° C | 93% | 1019.9 hPa | 0 mm | - | 0 W/m² | - |
| 1787916396 | 18.89° C | 92% | 1020 hPa | 0 mm | - | 0 W/m² | - |
| 1787916091 | 18.89° C | 92% | 1020.9 hPa | 0 mm | - | 0 W/m² | - |
| 1787915786 | 18.89° C | 92% | 1020.9 hPa | 0 mm | - | 0 W/m² | - |
| 1787915481 | 18.89° C | 92% | 1020.6 hPa | 0 mm | - | 0 W/m² | - |
| 1787915181 | 18.89° C | 91% | 1020 hPa | 0 mm | - | 0 W/m² | - |
| 1787914875 | 18.89° C | 91% | 1019.7 hPa | 0 mm | - | 0 W/m² | - |
| 1787914574 | 18.89° C | 91% | 1019.7 hPa | 0 mm | - | 0 W/m² | - |
| 1787914269 | 18.89° C | 91% | 1019.7 hPa | 0 mm | - | 0 W/m² | - |
| 1787913969 | 18.89° C | 90% | 1019.6 hPa | 0 mm | - | 0 W/m² | - |
| 1787913669 | 19.44° C | 90% | 1019.6 hPa | 1.27 mm | - | 0 W/m² | - |
| 1787913368 | 18.89° C | 90% | 1019.7 hPa | 1.27 mm | - | 0 W/m² | - |
| 1787913063 | 18.89° C | 91% | 1019.7 hPa | 4.83 mm | - | 0 W/m² | - |
| 1787912761 | 18.89° C | 91% | 1020.1 hPa | 7.87 mm | - | 0 W/m² | - |
| 1787912457 | 18.89° C | 90% | 1021.2 hPa | 6.1 mm | - | 0 W/m² | - |
| 1787912155 | 18.89° C | 89% | 1021.5 hPa | 27.69 mm | - | 0 W/m² | - |
* Rain latest hour (hover to see other rain measurements)
** Current wind speed in m/s (hover to see current wind gust speed)